Welcome to the New NWS' Forecast!
Most changes are behind the scenes, but click here for differences you might notice.
Latest weather observations around

Santa Ana, John Wayne Airport-Orange County Airport (KSNA)

Using English Units (Switch to International System of Units)
Date/ Time (PST) Wind (mph) Vis. (mi) Weather Sky Cond. Temp (°F) Rel. Humidity Wind Chill (°F) Heat Index (°F) Pressure Precip. (in)
Air Dwpt 6 hour Altimeter (inHg) Sea level (inHg) 1 hr 3 hr 6 hr
Max Min
Dec 09 10:53 NNE 3 10 Mostly Cloudy FEW180 FEW250 BKN300 67 50     55%     30.26 30.25      
Dec 09 09:53 Calm 9 Mostly Cloudy FEW180 SCT250 BKN300 63 51     65%     30.28 30.28      
Dec 09 08:53 Calm 9 Partly Cloudy FEW180 SCT250 58 49     72%     30.29 30.29      
Dec 09 07:53 Calm 10 Partly Cloudy FEW170 SCT250 53 47     80%     30.27 30.27      
Dec 09 06:53 Calm 10 Mostly Cloudy FEW170 FEW220 BKN250 50 46     86%     30.27 30.27      
Dec 09 05:53 NNE 3 10 Mostly Clear FEW250 50 45     83%     30.24 30.24      
Dec 09 04:53 Calm 10 Clear CLR 51 47     86%     30.23 30.23      
Dec 09 03:53 Calm 10 Clear CLR 51 47     86%     30.24 30.24      
Dec 09 02:53 Calm 9 Clear CLR 52 47     83%     30.25 30.24      
Dec 09 01:53 Calm 10 Clear CLR 52 47     83%     30.25 30.25      
Dec 09 00:53 Calm 9 Clear CLR 53 48     83%     30.25 30.25      
Dec 08 23:53 Calm 10 Clear CLR 54 49     83%     30.26 30.26      
Dec 08 22:53 Calm 9 Mostly Clear FEW250 55 50     83%     30.27 30.27      
Dec 08 21:53 Calm 10 Mostly Clear FEW250 57 50     77%     30.27 30.27      
Dec 08 20:53 Calm 10 Clear CLR 57 51     81%     30.27 30.27      
Dec 08 19:53 Calm 10 Mostly Clear FEW250 58 52     81%     30.25 30.25      
Dec 08 18:53 Calm 10 Mostly Clear FEW250 60 53     78%     30.24 30.24      
Dec 08 17:53 Calm 10 Mostly Clear FEW250 61 53     75%     30.23 30.23      
Dec 08 16:53 SW 5 10 Mostly Clear FEW250 63 53     70%     30.21 30.21      
Dec 08 15:53 SSW 8 10 Mostly Clear FEW250 65 52     63%     30.2 30.2      
Dec 08 14:53 SSW 9 10 Mostly Clear FEW250 66 53     63%     30.2 30.2      
Dec 08 13:53 S 7 10 Mostly Clear FEW250 67 54     63%     30.21 30.21      
Dec 08 12:53 SSW 9 10 Mostly Clear FEW250 67 54     63%     30.22 30.22      
Dec 08 11:53 SSW 8 10 Mostly Clear FEW250 67 53     61%     30.24 30.23      
Dec 08 10:53 Calm 10 Mostly Clear FEW250 65 50     58%     30.26 30.26      
Dec 08 09:53 Calm 10 Clear CLR 62 48     60%     30.27 30.27      
Dec 08 08:53 Calm 10 Clear   59 46     62%     30.26 30.26      
Dec 08 07:53 Calm 10 Clear CLR 53 45     74%     30.25 30.25      
Dec 08 06:53 Calm 10 Clear CLR 49 44     83%     30.24 30.24      
Dec 08 05:53 Calm 10 Clear CLR 49 44     83%     30.23 30.23      
Dec 08 04:53 Calm 10 Clear CLR 50 45     83%     30.21 30.21      
Dec 08 03:53 Calm 10 Clear CLR 51 45     79%     30.2 30.2      
Dec 08 02:53 Calm 10 Clear CLR 53 46     77%     30.2 30.19      
Dec 08 01:53 Calm 10 Clear CLR 54 47     77%     30.2 30.19      
Dec 08 00:53 Calm 10 Clear CLR 53 48     83%     30.19 30.19      
Dec 07 23:53 Calm 10 Clear CLR 54 49     83%     30.18 30.18      
Dec 07 22:53 Calm 10 Clear CLR 56 49     77%     30.18 30.17      
Dec 07 21:53 Calm 10 Clear CLR 56 49     77%     30.17 30.17      
Dec 07 20:53 Calm 10 Clear CLR 58 50     75%     30.15 30.15      
Dec 07 19:53 ESE 3 10 Clear CLR 60 50     69%     30.14 30.14      
Dec 07 18:53 SSE 3 10 Clear CLR 60 50     69%     30.13 30.12      
Dec 07 17:53 Calm 10 Clear CLR 62 50     65%     30.11 30.11      
Dec 07 16:53 3 10 Mostly Clear FEW045 FEW110 64 49     58%     30.09 30.09      
Dec 07 15:53 WSW 7 10 Mostly Clear FEW055 FEW230 65 50     58%     30.06 30.06      
Dec 07 14:53 SW 6 10 Mostly Clear FEW055 FEW080 FEW230 67 50     55%     30.05 30.04      
Dec 07 13:53 7 10 Mostly Clear FEW055 FEW080 68 48     49%     30.04 30.03      
Dec 07 12:53 Calm 10 Mostly Clear FEW055 FEW080 69 49     49%     30.03 30.03      
Dec 07 11:53 3 10 Mostly Clear FEW050 69 46     44%     30.05 30.05      
Dec 07 10:53 E 3 10 Mostly Clear FEW050 68 48     49%     30.07 30.06      
Dec 07 09:53 5 10 Mostly Clear FEW050 FEW075 62 51     67%     30.07 30.06      
Dec 07 08:53 3 10 Mostly Clear FEW055 FEW090 59 48     67%     30.07 30.06      
Dec 07 07:53 N 3 10 Mostly Clear FEW055 FEW090 FEW220 55 47     74%     30.05 30.04      
Dec 07 06:53 Calm 10 Mostly Clear FEW050 FEW090 52 49     89%     30.01 30.01      
Dec 07 05:53 Calm 10 Mostly Clear FEW090 53 49     86%     29.99 29.98      
Dec 07 04:53 Calm 10 Clear CLR 52 49     89%     29.97 29.97      
Dec 07 03:53 Calm 10 Mostly Cloudy BKN046 53 50     89%     29.96 29.96     0
Dec 07 02:53 Calm 10 Cloudy BKN050 OVC080 54 51     90%     29.96 29.95 0    
Dec 07 01:53 N 3 10 Cloudy SCT065 OVC090 54 50     86%     29.96 29.96      
Dec 06 23:53 N 3 10 Cloudy SCT060 OVC080 55 51     86%     29.95 29.95 0    
Dec 06 22:53 N 6 9 Light Rain FEW050 BKN075 OVC110 55 50     83%     29.93 29.93 0    
Dec 06 21:53 N 3 10 Mostly Cloudy BKN075 56 51     84%     29.92 29.92     0
Dec 06 20:53 Calm 10 Mostly Cloudy BKN090 56 52     87%     29.9 29.9 0    
Dec 06 19:53 E 11 10 Light Rain FEW041 OVC080 57 52     83%     29.89 29.89 0    
Dec 06 18:53 NNE 5 10 Light Rain BKN070 OVC085 57 52     83%     29.89 29.89 0 0  
Dec 06 17:53 NW 3 10 Light Rain FEW060 OVC090 57 52     83%     29.87 29.87 0    
Dec 06 16:53 E 6 5 Light Rain BKN075 OVC095 57 52     83%     29.86 29.86 0    
Dec 06 15:53 Calm 8 Light Rain FEW055 FEW070 BKN085 58 51     78%     29.85 29.85 0   3
Dec 06 14:53 ENE 9 10 Light Rain BKN090 OVC110 57 50     77%     29.84 29.84 0    
Dec 06 14:10 ENE 11 5 Light Rain and Fog/Mist OVC070 56 52     87%     29.86   0    
Dec 06 13:53 NE 8 1.5 Rain and Fog/Mist BKN055 OVC070 56 52     87%     29.87 29.86 0    
Dec 06 13:14 NE 8 1.5 Heavy Rain and Fog/Mist BKN042 OVC070 56 53     90%     29.87   0    
Dec 06 12:53 ENE 5 2.5 Heavy Rain and Fog/Mist SCT037 OVC060 55 51     86%     29.88 29.88 1 3  
Dec 06 12:33 NE 7 2.5 Heavy Rain and Fog/Mist SCT034 OVC055 56 52     87%     29.87   0    
Dec 06 12:24 Calm 2.5 Heavy Rain and Fog/Mist BKN029 OVC050 56 53     90%     29.88   0    
Dec 06 12:16 Calm 1 Heavy Rain and Fog/Mist BKN031 BKN045 OVC055 56 53     90%     29.88   0    
Dec 06 12:00 NNW 3 2 Heavy Rain and Fog/Mist FEW018 BKN027 OVC055 56 54     93%     29.88   0    
Dec 06 11:53 S 3 3 Heavy Rain and Fog/Mist SCT018 BKN024 OVC055 56 54     93%     29.89 29.88 1    
Dec 06 11:35 SSW 6 3 Heavy Rain and Fog/Mist OVC018 58 54     87%     29.88   1    
Dec 06 11:12 SSW 8 1 Heavy Rain FEW008 OVC018 60 55     83%     29.88   0    
Dec 06 10:53 S 14 0.5 Heavy Rain FEW010 SCT016 OVC023 59 55     87%     29.89 29.89 1    
Dec 06 10:43 S 11 0.5 Heavy Rain BKN010 BKN018 OVC022 59 56     90%     29.89   1    
Dec 06 09:53 ESE 8 1.5 Rain OVC024 59 54     83%     29.89 29.89 0   0
Dec 06 09:48 ESE 8 1.5 Rain OVC024 59 54     82%     29.89   0    
Dec 06 09:05 ESE 14 10 Cloudy BKN023 OVC050 59 53     81%     29.88        
Dec 06 08:53 ESE 14 10 Mostly Cloudy FEW023 BKN030 BKN050 59 53     81%     29.88 29.88      
Dec 06 07:53 ESE 9 10 Mostly Cloudy BKN041 BKN050 59 51     75%     29.85 29.85      
Dec 06 06:53 SE 10 10 Mostly Cloudy BKN040 58 51     78%     29.85 29.85 0 0  
Dec 06 05:53 Calm 3 Rain and Fog/Mist OVC039 56 52     87%     29.84 29.84 0    
Dec 06 04:53 NE 5 8 Light Rain OVC037 56 50     80%     29.82 29.82 0    
Dec 06 03:53 NE 6 10 Cloudy OVC039 56 51     84%     29.83 29.82 0   0
Dec 06 02:53 NNW 3 10 Light Rain OVC036 56 51     84%     29.85 29.85 0    
Dec 06 01:53 NNW 5 10 Cloudy OVC034 56 50     80%     29.85 29.85 0    
Dec 06 00:53 Calm 10 Cloudy OVC036 56 51     84%     29.86 29.85 0 0  
Dec 05 23:53 NE 6 10 Cloudy OVC036 56 51     84%     29.87 29.87      
Dec 05 22:53 NNE 5 10 Cloudy OVC040 55 51     86%     29.89 29.88 0    
Dec 05 21:53 NNE 3 10 Light Rain FEW030 SCT037 OVC045 55 51     86%     29.89 29.89 0   0
Dec 05 20:53 ENE 6 10 Cloudy OVC048 55 50     83%     29.89 29.89 0    
Dec 05 19:53 NE 5 4 Light Rain SCT037 BKN046 OVC060 55 50     83%     29.9 29.9 0    
Dec 05 18:53 NNE 5 3 Light Rain OVC041 56 50     80%     29.87 29.87 0 0  
Dec 05 17:53 Calm 3 Cloudy FEW026 OVC036 56 49     77%     29.88 29.88 0    
Dec 05 16:53 ENE 6 10 Light Rain OVC032 55 49     80%     29.88 29.88 0    
Dec 05 16:44 NE 6 10 Light Rain OVC030 55 49     80%     29.87   0    
Dec 05 15:53 ENE 3 3 Cloudy OVC023 56 49     77%     29.88 29.88 0   0
Dec 05 15:02 ESE 8 3 Light Rain BKN026 OVC035 57 46     67%     29.88   0    
Dec 05 14:53 6 7 Light Rain SCT026 OVC037 58 45     62%     29.87 29.87 0    
Dec 05 13:53 ENE 6 10 Cloudy OVC035 58 45     62%     29.87 29.87      
Dec 05 12:53 E 7 10 Mostly Cloudy FEW035 BKN045 57 44     62%     29.89 29.89   0  
Dec 05 11:53 NNE 5 10 Mostly Cloudy FEW030 BKN045 56 44     64%     29.91 29.91      
Dec 05 10:53 NNE 8 10 Cloudy BKN055 OVC250 56 45     67%     29.94 29.94 0    
Dec 05 09:53 N 5 10 Light Rain BKN085 BKN250 54 46     74%     29.96 29.96 0   0
Dec 05 08:53 NE 6 8 Light Rain BKN055 OVC070 53 44     71%     29.97 29.97 0    
Dec 05 07:53 ESE 8 6 Light Rain FEW060 BKN095 53 44     71%     29.95 29.94 0    
Dec 05 06:53 SE 6 10 Light Rain BKN060 BKN080 52 43     71%     29.94 29.94 0 0  
Dec 05 05:53 6 10 Light Rain BKN065 BKN080 OVC100 52 40     63%     29.95 29.94 0    
Dec 05 04:53 N 5 10 Light Rain BKN070 OVC090 53 39     59%     29.92 29.92 0    
Dec 05 03:53 Calm 10 Cloudy OVC075 53 36     52%     29.91 29.91      
Dec 05 02:53 Calm 10 Mostly Cloudy BKN095 52 35     52%     29.93 29.93      
Dec 05 01:53 NE 5 10 Clear CLR 50 35     56%     29.97 29.97      
Dec 05 00:53 NNE 3 10 Clear CLR 52 35     52%     29.98 29.98      
Dec 04 23:53 NNE 3 10 Clear CLR 52 35     52%     29.98 29.98      
Dec 04 22:53 NNE 3 10 Partly Cloudy FEW200 SCT250 53 35     50%     29.98 29.97      
Dec 04 21:53 ENE 3 10 Clear CLR 56 34     43%     29.98 29.98      
Dec 04 20:53 ESE 3 10 Clear CLR 58 32     37%     29.97 29.97      
Dec 04 19:53 ESE 3 10 Clear CLR 59 32     36%     29.97 29.96      
Dec 04 18:53 Calm 10 Clear CLR 60 36     40%     29.96 29.96      
Dec 04 17:53 ESE 3 10 Clear CLR 62 35     36%     29.95 29.95      
Dec 04 16:53 SW 7 10 Mostly Clear FEW250 64 30     28%     29.95 29.95      
Dec 04 15:53 SSW 9 10 Mostly Clear FEW250 66 30     26%     29.94 29.93      
Dec 04 14:53 6 10 Mostly Clear FEW250 69 29     22%     29.95 29.94      
Dec 04 13:53 SW 8 10 Mostly Clear FEW230 70 29     22%     29.96 29.96      
Dec 04 12:53 SW 3 10 Mostly Clear FEW230 69 33     26%     29.97 29.97      
Dec 04 11:53 3 10 Mostly Clear FEW230 68 34     28%     30.01 30.01      
Dec 04 10:53 Calm 10 Mostly Cloudy BKN230 65 33     30%     30.05 30.04      
Dec 04 09:53 Calm 10 Partly Cloudy FEW170 SCT230 64 39     40%     30.07 30.07      
Dec 04 08:53 ENE 3 10 Partly Cloudy FEW170 SCT230 59 36     42%     30.07 30.07      
Dec 04 07:53 Calm 10 Partly Cloudy SCT230 54 36     50%     30.08 30.08      
Dec 04 06:53 Calm 10 Mostly Cloudy SCT170 BKN230 50 36     58%     30.07 30.06      
Dec 04 05:53 Calm 10 Partly Cloudy SCT170 50 36     58%     30.05 30.05      
Dec 04 04:53 NNE 3 10 Clear CLR 48 37     66% 47   30.04 30.04      
Dec 04 03:53 Calm 10 Clear CLR 49 36     61%     30.05 30.05      
Dec 04 02:53 NNE 3 10 Clear CLR 49 37     63% 48   30.06 30.06      
Dec 04 01:53 S 3 10 Clear CLR 49 38     66% 48   30.06 30.06      
Dec 04 00:53 Calm 10 Clear CLR 52 36     54%     30.06 30.06      
Dec 03 23:53 NNE 3 10 Clear CLR 52 36     54%     30.07 30.06      
Dec 03 22:53 Calm 10 Mostly Clear FEW250 53 38     56%     30.08 30.08      
Dec 03 21:53 Calm 10 Mostly Clear FEW250 55 38     52%     30.09 30.09      
Dec 03 20:53 SSW 3 10 Mostly Clear FEW250 55 40     57%     30.09 30.09      
Dec 03 19:53 SSE 3 10 Mostly Clear FEW250 58 42     55%     30.09 30.09      
Dec 03 18:53 NNW 3 10 Mostly Clear FEW250 59 45     60%     30.09 30.09      
Dec 03 17:53 Calm 10 Mostly Clear FEW250 61 45     56%     30.08 30.08      
Dec 03 16:53 Calm 10 Mostly Clear FEW250 63 39     41%     30.07 30.07      
Dec 03 15:53 W 5 10 Mostly Clear FEW250 65 34     32%     30.06 30.06      
Dec 03 14:53 WSW 7 10 Mostly Clear FEW250 66 33     29%     30.06 30.06      
Dec 03 13:53 SW 6 10 Mostly Clear FEW250 67 38     34%     30.07 30.07      
Dec 03 12:53 S 5 10 Mostly Clear FEW250 65 42     43%     30.09 30.09      
Dec 03 11:53 Calm 10 Mostly Clear FEW250 65 42     43%     30.12 30.12      
Dec 03 10:53 Calm 10 Clear CLR 63 43     48%     30.15 30.15      
Dec 03 09:53 Calm 10 Mostly Clear FEW170 61 44     54%     30.16 30.16      
Dec 03 08:53 Calm 10 Mostly Cloudy BKN170 59 42     53%     30.16 30.16      
Dec 03 07:53 SE 3 10 Mostly Cloudy BKN180 55 40     57%     30.15 30.14      
Dec 03 06:53 Calm 10 Mostly Cloudy BKN170 52 40     63%     30.14 30.14      
Dec 03 05:53 ENE 3 10 Mostly Cloudy BKN180 51 40     65%     30.13 30.13      
Dec 03 04:53 Calm 10 Clear CLR 51 39     63%     30.12 30.12      
Dec 03 03:53 Calm 10 Clear CLR 52 39     61%     30.11 30.11      
Dec 03 01:53 Calm 10 Clear CLR 51 40     65%     30.12 30.12      
Dec 03 00:53 Calm 10 Clear CLR 51 40     65%     30.1 30.1      
Dec 02 23:53 NNE 3 10 Clear CLR 52 41     66%     30.11 30.11      
Dec 02 22:53 Calm 10 Partly Cloudy FEW080 SCT250 53 41     63%     30.1 30.1      
Dec 02 21:53 E 6 10 Mostly Clear FEW075 54 42     64%     30.09 30.09      
Dec 02 20:53 ESE 5 10 Clear CLR 55 43     64%     30.09 30.08      
Dec 02 19:53 ENE 5 10 Mostly Clear FEW250 56 44     64%     30.07 30.07      
Dec 02 18:53 Calm 10 Mostly Clear FEW250 58 43     57%     30.06 30.06      
Dec 02 17:53 Calm 10 Mostly Clear FEW250 58 42     55%     30.04 30.04      
Dec 02 16:53 SW 3 10 Partly Cloudy FEW050 SCT250 59 41     51%     30.03 30.02      
Dec 02 15:53 WSW 8 10 Mostly Clear FEW050 FEW250 61 41     48%     30.01 30.01      
Dec 02 14:53 WSW 8 10 Mostly Clear FEW055 FEW250 62 40     44%     30.01 30.01      
Dec 02 13:53 W 8 10 Mostly Clear FEW055 FEW250 63 37     38%     30 30      
Dec 02 12:53 SW 9 10 Mostly Clear FEW055 FEW220 FEW250 64 36     35%     30.01 30.01      
Dec 02 11:53 NE 6 10 Mostly Clear FEW055 FEW220 FEW250 64 35     34%     30.02 30.02      
Dec 02 10:53 3 10 Partly Cloudy FEW044 FEW220 SCT250 61 35     38%     30.05 30.04      
Dec 02 09:53 3 10 Mostly Cloudy FEW028 FEW042 BKN250 59 38     45%     30.05 30.05      
Dec 02 08:53 Calm 10 Partly Cloudy FEW045 SCT250 56 38     51%     30.03 30.03      
Dec 02 07:53 NNE 3 10 Partly Cloudy FEW043 SCT250 51 42     71%     30.02 30.02      
Dec 02 06:53 NE 5 10 Mostly Clear FEW020 FEW250 48 40     73% 46   29.99 29.98      
Dec 02 05:53 SSW 3 10 Clear CLR 50 38     63%     29.97 29.97      
Dec 02 04:53 Calm 10 Clear CLR 52 38     59%     29.95 29.95      
Dec 02 03:53 Calm 10 Clear CLR 52 41     66%     29.94 29.94      
Dec 02 02:53 Calm 10 Clear CLR 54 43     66%     29.94 29.94      
Dec 02 01:53 Calm 10 Clear CLR 55 44     66%     29.93 29.93      
Dec 02 00:53 Calm 10 Clear CLR 56 44     64%     29.93 29.93      
Dec 01 23:53 W 3 10 Clear CLR 58 44     60%     29.94 29.93      
Dec 01 22:53 WNW 7 10 Mostly Cloudy FEW042 BKN045 58 48     70%     29.94 29.94      
Dec 01 21:53 5 10 Mostly Clear FEW038 58 48     70%     29.92 29.92      
Dec 01 20:53 W 3 9 Mostly Clear FEW040 59 48     67%     29.92 29.92      
Dec 01 19:53 W 5 9 Mostly Clear FEW045 59 48     67%     29.92 29.92      
Dec 01 18:53 3 10 Mostly Clear FEW045 FEW250 60 47     62%     29.92 29.91      
Dec 01 17:53 WSW 8 10 Mostly Clear FEW042 FEW250 60 47     62%     29.91 29.91      
Dec 01 16:53 WSW 6 10 Mostly Cloudy FEW047 FEW210 BKN250 61 43     52%     29.91 29.91      
Dec 01 15:53 W 8 10 Partly Cloudy FEW045 SCT250 62 45     53%     29.92 29.91      
Dec 01 14:53 W 9 10 Partly Cloudy FEW046 SCT250 63 44     50%     29.92 29.92      
Dec 01 13:53 SW 11 10 Mostly Cloudy SCT047 BKN250 65 46     50%     29.93 29.92      
Dec 01 12:53 5 10 Mostly Cloudy SCT041 SCT055 BKN250 64 46     52%     29.93 29.93      
Dec 01 11:53 WSW 5 10 Mostly Cloudy FEW033 SCT041 BKN250 64 48     56%     29.96 29.96      
Dec 01 10:53 Calm 10 Mostly Clear FEW029 FEW250 62 50     65%     29.99 29.99      
Dec 01 09:53 Calm 10 Mostly Clear FEW029 FEW250 61 50     67%     30.01 30      
Dec 01 08:53 Calm 10 Mostly Clear FEW026 FEW250 58 47     67%     30 30      
Dec 01 07:53 ENE 5 10 Mostly Clear FEW025 FEW250 55 46     72%     29.99 29.99      
Dec 01 06:53 Calm 10 Mostly Clear FEW025 FEW250 52 45     77%     30 30      
Dec 01 05:53 ESE 3 10 Mostly Clear FEW023 54 47     77%     29.98 29.98      
Dec 01 05:21 Calm 10 Partly Cloudy SCT023 53 45     74%     29.97        
Dec 01 04:53 Calm 10 Mostly Cloudy BKN024 53 45     74%     29.97 29.97      
Dec 01 04:27 Calm 10 Mostly Cloudy BKN022 53 45     74%     29.97        
Dec 01 03:53 3 10 Clear CLR 54 46     74%     29.97 29.97      
Dec 01 02:53 Calm 10 Clear CLR 53 46     77%     29.96 29.96      
Dec 01 01:53 Calm 10 Clear CLR 54 47     77%     29.98 29.97      
Dec 01 00:53 Calm 10 Clear CLR 54 46     74%     29.98 29.97      
Nov 30 23:53 Calm 10 Clear CLR 56 46     69%     29.99 29.99      
Nov 30 22:53 Calm 10 Mostly Clear FEW055 57 46     67%     29.99 29.98      
Nov 30 21:53 Calm 10 Mostly Clear FEW060 58 46     65%     29.99 29.98      
Nov 30 20:53 S 5 10 Mostly Clear FEW055 58 47     67%     29.98 29.98      
Nov 30 19:53 ESE 6 10 Partly Cloudy SCT055 59 47     64%     29.97 29.97      
Nov 30 18:53 Calm 10 Mostly Clear FEW050 62 45     53%     29.97 29.97      
Nov 30 17:53 Calm 10 Mostly Clear FEW046 62 45     53%     29.97 29.96      
Nov 30 16:53 WSW 6 10 Partly Cloudy FEW042 SCT250 63 46     54%     29.95 29.95      
Nov 30 15:53 WSW 7 10 Mostly Clear FEW040 FEW250 64 47     54%     29.94 29.94      
Nov 30 14:53 SSW 11 10 Mostly Clear FEW040 FEW250 65 47     52%     29.94 29.93      
Nov 30 13:53 6 10 Partly Cloudy FEW039 SCT250 65 47     52%     29.95 29.95      
Nov 30 12:53 SW 10 10 Partly Cloudy SCT037 SCT230 65 49     56%     29.93 29.93      
Nov 30 11:53 W 8 10 Mostly Cloudy FEW030 SCT036 BKN230 65 49     56%     29.93 29.93      
Nov 30 10:53 3 10 Mostly Cloudy FEW029 BKN230 64 50     60%     29.94 29.94      
Nov 30 09:53 NNE 5 10 Mostly Cloudy FEW025 BKN230 63 50     63%     29.96 29.96      
Nov 30 08:53 Calm 10 Mostly Cloudy FEW023 BKN230 62 52     70%     29.94 29.93      
Nov 30 07:53 5 10 Mostly Cloudy FEW023 FEW028 BKN230 58 53     84%     29.91 29.9      
Nov 30 06:53 N 3 9 Mostly Cloudy FEW021 FEW037 BKN230 56 52     87%     29.88 29.88      
Nov 30 05:53 Calm 10 Partly Cloudy FEW040 SCT200 57 53     87%     29.85 29.85      
Nov 30 04:53 SE 3 10 Cloudy OVC034 58 53     84%     29.84 29.83      
Nov 30 03:53 Calm 10 Cloudy FEW024 OVC046 58 54     87%     29.82 29.82 0   0
Nov 30 03:34 Calm 10 Cloudy SCT024 BKN031 OVC050 58 54     87%     29.82   0    
Nov 30 03:25 Calm 10 Cloudy BKN024 BKN030 OVC048 58 54     87%     29.82   0    
Nov 30 03:15 Calm 10 Light Rain FEW023 BKN035 OVC047 58 53     84%     29.82   0    
Nov 30 03:04 Calm 9 Light Rain BKN026 BKN030 OVC037 59 52     78%     29.83   0    
Nov 30 02:53 Calm 10 Light Rain SCT026 BKN033 OVC042 58 52     81%     29.82 29.82 0    
Nov 30 02:44 Calm 10 Light Rain BKN026 OVC042 58 53     84%     29.82   0    
Nov 30 01:53 NNE 3 10 Cloudy FEW024 BKN038 OVC046 58 54     87%     29.81 29.81 0    
Nov 30 00:53 Calm 10 Light Rain FEW024 SCT029 BKN035 57 53     87%     29.8 29.8 0 0  
Nov 30 00:23 Calm 10 Cloudy FEW023 BKN050 OVC060 57 53     87%     29.8   0    
Nov 30 00:06 Calm 7 Light Rain SCT023 BKN029 OVC040 58 52     81%     29.8   0    
Nov 29 23:53 Calm 10 Cloudy SCT023 SCT030 OVC041 57 53     87%     29.8 29.8      
Nov 29 22:53 3 10 Mostly Cloudy SCT023 SCT029 BKN046 59 52     78%     29.8 29.8 0    
Nov 29 21:53 SSW 3 8 Clear   58 52     81%     29.81 29.8 0   0
Nov 29 21:21 W 3 5 Light Rain and Fog/Mist FEW018 SCT029 BKN040 57 52     83%     29.81   0    
Nov 29 21:07 WNW 7 5 Light Rain and Fog/Mist FEW018 BKN029 OVC042 58 52     81%     29.82   0    
Nov 29 20:53 WNW 5 8 Mostly Cloudy FEW019 SCT037 BKN065 58 52     81%     29.81 29.81 0    
Nov 29 20:37 5 3 Light Rain and Fog/Mist SCT020 BKN030 OVC060 60 53     78%     29.8   0    
Nov 29 20:04 S 8 5 Light Rain and Fog/Mist SCT016 BKN032 OVC049 58 52     81%     29.81   0    
Nov 29 19:56 S 6 2 Rain and Fog/Mist BKN018 BKN034 OVC085 58 51     78%     29.81   0    
Nov 29 19:53 S 3 4 Rain and Fog/Mist FEW018 BKN034 OVC085 58 51     78%     29.8 29.8 0    
Nov 29 18:53 S 5 7 Light Rain FEW018 SCT026 BKN055 58 50     75%     29.81 29.8 0 0  
Nov 29 18:06 WSW 10 7 Light Rain FEW018 SCT026 BKN055 59 51     75%     29.81   0    
Nov 29 17:53 W 11 4 Light Rain and Fog/Mist FEW018 BKN029 BKN038 60 53     78%     29.81 29.8 0    
Nov 29 17:45 W 10 2.5 Rain and Fog/Mist FEW018 BKN029 BKN038 62 52     70%     29.8   0    
Nov 29 17:43 W 11 7 Light Rain FEW018 BKN029 BKN038 62 51     67%     29.8   0    
Nov 29 16:53 SW 6 9 Mostly Cloudy SCT031 BKN038 63 50     63%     29.8 29.79      
Nov 29 15:53 WSW 9 9 Mostly Cloudy FEW029 BKN034 BKN041 64 50     60%     29.79 29.78     0
Nov 29 14:53 WSW 9 10 Mostly Cloudy FEW023 SCT032 BKN070 64 53     67%     29.78 29.78      
Nov 29 13:53 WSW 9 10 Mostly Cloudy FEW025 SCT030 BKN070 64 53     67%     29.78 29.78 0    
Nov 29 13:00 WSW 9 10 Mostly Cloudy FEW020 BKN040 63 54     72%     29.78   0    
Nov 29 12:53 SW 10 3 Light Rain SCT020 BKN028 BKN040 62 55     78%     29.79 29.78 0 0  
Nov 29 12:42 SSW 11 2 Heavy Rain SCT020 BKN028 OVC037 62 57     84%     29.79   0    
Nov 29 11:53 SSW 13 3 Light Rain FEW013 SCT026 OVC070 59 54     83%     29.82 29.82 0    
Nov 29 11:50 SSW 10 3 Light Rain SCT013 BKN027 OVC070 59 54     82%     29.82   0    
Nov 29 11:29 SW 5 1.5 Rain FEW015 BKN023 OVC048 60 55     83%     29.83   0    
Nov 29 11:09 S 13 8 Cloudy BKN022 OVC070 60 55     83%     29.83   0    
Nov 29 10:53 S 10 7 Light Rain BKN070 OVC090 60 55     83%     29.83 29.83 0    
Nov 29 10:01 S 8 4 Light Rain and Fog/Mist OVC065 59 55     87%     29.84   0    
Nov 29 09:53 SW 8 2 Light Rain and Fog/Mist FEW008 BKN045 OVC065 59 55     87%     29.85 29.85 0   0
Nov 29 09:37 SW 11 2 Rain and Fog/Mist FEW006 BKN032 OVC049 59 57     93%     29.85   0    
Nov 29 09:22 WSW 8 2 Light Rain and Fog/Mist FEW009 BKN027 OVC046 59 57     93%     29.85   0    
Nov 29 09:14 WSW 13 2 Rain and Fog/Mist FEW011 BKN031 OVC046 59 56     90%     29.86   0    
Nov 29 09:08 SW 15 0.5 Heavy Rain FEW009 BKN025 OVC050 60 57     90%     29.86   0    
Nov 29 09:05   1.5 Rain and Fog/Mist FEW015 BKN029 OVC050 60 57     90%     29.85   0    
Nov 29 08:53 S 17 3 Rain and Fog/Mist FEW024 BKN034 OVC050 60 56     86%     29.83 29.83 0    
Nov 29 08:50 S 16 3 Rain and Fog/Mist FEW024 BKN030 61 55     82%     29.83   0    
Nov 29 08:40 SSW 15 2 Rain and Fog/Mist SCT022 OVC028 60 56     86%     29.83   0    
Nov 29 08:28 SSW 20 1.75 Heavy Rain and Fog/Mist FEW022 BKN034 OVC041 60 56     86%     29.84   0    
Nov 29 08:04 SSW 13 3 Light Rain FEW012 BKN041 OVC048 60 55     83%     29.83   0    
Nov 29 07:53 SSW 17 2.5 Rain and Fog/Mist FEW011 BKN039 OVC050 60 56     86%     29.83 29.83 0    
Nov 29 06:53 S 13 10 Cloudy FEW015 FEW040 OVC055 62 57     84%     29.83 29.83   0  
Nov 29 05:53 ESE 3 10 Cloudy FEW021 FEW027 OVC065 61 57     87%     29.83 29.83 0    
Nov 29 05:40 ESE 3 10 Cloudy FEW019 BKN039 OVC065 61 57     87%     29.83   0    
Nov 29 04:53 ESE 5 10 Light Rain BKN022 BKN028 OVC038 61 57     87%     29.83 29.83 0    
Nov 29 03:53 Calm 10 Cloudy SCT018 BKN025 OVC032 60 57     90%     29.85 29.84 0   0
Nov 29 03:44 ESE 3 10 Cloudy FEW019 BKN026 OVC042 60 57     90%     29.85   0    
Nov 29 03:21 Calm 10 Cloudy FEW018 BKN030 OVC038 60 57     90%     29.85   0    
Nov 29 02:53 Calm 3 Light Rain and Fog/Mist SCT008 BKN019 OVC026 59 56     90%     29.86 29.86 0    
Nov 29 02:48 SSE 3 3 Light Rain and Fog/Mist FEW005 BKN016 OVC032 59 55     88%     29.86   0    
Nov 29 02:35 3 2 Rain and Fog/Mist FEW009 BKN023 OVC029 59 55     87%     29.86   0    
Nov 29 02:12 ESE 6 10 Cloudy SCT015 BKN021 OVC026 59 55     87%     29.86        
Nov 29 01:53 ESE 5 10 Cloudy BKN014 OVC070 59 55     87%     29.86 29.86      
Nov 29 01:00 E 9 10 Cloudy OVC017 59 55     87%     29.87        
Nov 29 00:53 ESE 7 10 Cloudy BKN014 OVC021 59 55     87%     29.87 29.87 0 0  
Nov 29 00:29 SE 6 7 Light Rain BKN013 OVC017 59 55     87%     29.88   0    
Nov 29 00:21 E 6 8 Cloudy OVC015 59 55     87%     29.88   0    
Nov 28 23:53 E 9 9 Light Rain OVC014 59 55     87%     29.89 29.88 0    
Nov 28 23:36 E 6 7 Light Rain OVC014 59 55     87%     29.89   0    
Nov 28 23:28 E 6 2.5 Light Rain and Fog/Mist OVC012 59 55     87%     29.89   0    
Nov 28 23:08 E 6 3 Light Rain and Fog/Mist OVC013 59 55     87%     29.9   0    
Nov 28 23:00 ESE 6 2 Light Rain and Fog/Mist BKN015 OVC020 59 55     87%     29.9   0    
Nov 28 22:53 SE 9 3 Light Rain OVC017 60 54     80%     29.9 29.9 0    
Nov 28 21:53 ESE 8 10 Mostly Cloudy SCT021 BKN028 BKN042 62 52     70%     29.91 29.9     0
Nov 28 21:00 SE 7 10 Mostly Cloudy BKN024 BKN047 62 52     70%     29.91        
Nov 28 20:53 ESE 9 10 Mostly Cloudy SCT022 SCT027 BKN047 62 52     70%     29.91 29.91      
Nov 28 19:53 SE 6 10 Mostly Cloudy FEW025 BKN050 63 53     70%     29.92 29.92 0    
Nov 28 18:53 SSE 6 10 Light Rain FEW022 BKN050 64 54     70%     29.92 29.92 0 0  
Nov 28 17:53 SSE 7 10 Mostly Cloudy FEW031 BKN050 64 53     67%     29.91 29.91      
Nov 28 16:53 SSE 8 10 Mostly Cloudy FEW033 BKN055 64 53     67%     29.89 29.89      
Nov 28 15:53 S 10 10 Partly Cloudy SCT030 65 54     68%     29.9 29.89      
Nov 28 14:53 SSW 11 10 Partly Cloudy SCT029 65 52     63%     29.9 29.9      
Nov 28 13:53 SSW 10 10 Partly Cloudy SCT031 66 51     59%     29.9 29.89      
Nov 28 12:53 SSW 8 10 Mostly Cloudy BKN031 65 51     61%     29.92 29.91      
Nov 28 11:53 SSE 11 10 Partly Cloudy SCT030 67 51     57%     29.92 29.92      
Nov 28 11:15 S 8 10 Mostly Cloudy BKN030 67 51     57%     29.95        
Nov 28 10:53 S 7 10 Mostly Cloudy BKN026 66 52     61%     29.96 29.96      
Nov 28 09:53 7 10 Mostly Cloudy BKN026 64 53     67%     29.97 29.96      
Nov 28 08:53 SE 7 10 Mostly Cloudy BKN024 62 51     67%     29.97 29.97      
Nov 28 07:53 7 10 Mostly Cloudy BKN021 BKN120 59 51     75%     29.95 29.95      
Nov 28 06:53 Calm 10 Partly Cloudy SCT016 SCT120 55 45     69%     29.95 29.95      
Nov 28 05:53 NE 3 10 Mostly Cloudy BKN016 BKN028 54 45     72%     29.96 29.96      
Nov 28 05:35 N 3 10 Mostly Cloudy BKN016 55 47     74%     29.97        
Nov 28 05:10 Calm 10 Mostly Cloudy BKN014 54 46     74%     29.95        
Nov 28 04:53 Calm 10 Clear CLR 54 46     74%     29.94 29.94      
Nov 28 04:39 NE 3 10 Partly Cloudy SCT011 53 45     74%     29.94        
Nov 28 04:22 N 3 10 Mostly Cloudy BKN011 54 46     74%     29.94        
Nov 28 03:53 ESE 3 10 Clear CLR 55 46     72%     29.95 29.95      
Nov 28 03:28 NNE 3 10 Partly Cloudy SCT010 54 44     69%     29.97        
Nov 28 03:17 NNE 5 10 Mostly Cloudy BKN010 55 45     69%     29.98        
Nov 28 02:53 NNE 3 10 Clear CLR 56 47     72%     29.97 29.97      
Nov 28 01:53 Calm 10 Clear CLR 56 47     72%     29.98 29.98      
Nov 28 00:53 ENE 3 10 Mostly Clear FEW011 58 49     72%     29.98 29.97      
Nov 27 23:53 ENE 3 10 Partly Cloudy SCT200 59 50     72%     29.99 29.98      
Nov 27 23:00 SE 3 10 Partly Cloudy SCT007 SCT200 60 50     69%     29.99        
Nov 27 22:53 SE 3 10 Partly Cloudy SCT012 SCT200 60 51     72%     29.99 29.98      
Nov 27 21:53 Calm 10 Mostly Cloudy BKN200 61 53     75%     29.99 29.99      
Nov 27 20:53 SSE 3 10 Mostly Cloudy BKN200 62 54     75%     30 29.99      
Nov 27 19:53 ESE 7 10 Mostly Cloudy BKN200 63 52     67%     30 30      
Nov 27 18:53 S 3 10 Mostly Cloudy BKN200 64 55     73%     30 30      
Nov 27 17:53 S 5 10 Mostly Cloudy BKN200 64 52     65%     30 30      
Nov 27 16:53 SW 5 10 Mostly Cloudy BKN200 66 50     56%     29.99 29.98      
Nov 27 15:53 SSW 9 10 Mostly Cloudy BKN200 68 49     50%     29.99 29.99      
Nov 27 14:53 S 6 10 Mostly Cloudy BKN200 69 50     51%     30 30      
Nov 27 13:53 SSW 9 10 Clear   71 52     51%   70 30.01 30.01      
Nov 27 12:53 SSW 9 10 Mostly Cloudy BKN200 71 50     47%   70 30.02 30.02      
Nov 27 11:53 SSW 8 10 Clear   72 46     40%   71 30.04 30.04      
Nov 27 10:53 SSW 7 10 Mostly Cloudy FEW120 BKN200 70 48     46%     30.06 30.06      
Nov 27 09:53 Calm 10 Mostly Clear FEW120 69 46     44%     30.09 30.08      
Nov 27 08:53 Calm 10 Mostly Clear FEW120 65 39     38%     30.09 30.08      
Nov 27 07:53 Calm 9 Mostly Clear FEW120 FEW200 58 40     51%     30.08 30.07      
Nov 27 06:53 Calm 10 Partly Cloudy FEW120 SCT200 53 38     56%     30.06 30.06      
Nov 27 05:53 Calm 10 Clear CLR 53 41     63%     30.06 30.06      
Nov 27 04:53 Calm 10 Clear CLR 53 41     63%     30.05 30.05      
Nov 27 03:53 Calm 10 Clear CLR 55 42     62%     30.05 30.05      
Nov 27 02:53 N 3 10 Clear CLR 55 42     62%     30.06 30.06      
Nov 27 01:53 Calm 10 Clear CLR 55 44     66%     30.06 30.06      
Nov 27 00:53 Calm 10 Clear CLR 56 44     64%     30.06 30.06      
Nov 26 23:53 NE 3 10 Clear CLR 58 45     62%     30.07 30.06      
Nov 26 22:53 NE 5 10 Mostly Clear FEW250 59 47     64%     30.08 30.07      
Nov 26 21:53 Calm 10 Mostly Clear FEW250 62 48     60%     30.08 30.07      
Nov 26 20:53 S 5 10 Mostly Clear FEW250 62 49     62%     30.08 30.07      
Nov 26 19:53 Calm 10 Clear CLR 63 48     58%     30.08 30.08      
Nov 26 18:53 E 3 10 Mostly Clear FEW250 66 47     50%     30.07 30.07      
Nov 26 17:53 3 10 Mostly Clear FEW250 68 47     47%     30.07 30.06      
Nov 26 16:53 Calm 10 Partly Cloudy SCT300 69 45     42%     30.06 30.06      
Nov 26 15:53 5 10 Partly Cloudy SCT300 72 47     41%   71 30.05 30.05      
Nov 26 14:53 SW 7 10 Partly Cloudy SCT300 72 47     41%   71 30.05 30.05      
Nov 26 13:53 S 11 10 Partly Cloudy SCT300 74 56     53%   74 30.05 30.04      
Nov 26 12:53 S 10 10 Partly Cloudy SCT250 75 49     40%   74 30.06 30.05      
Nov 26 11:53 SSW 6 10 Clear CLR 74 44     34%   73 30.08 30.08      
Nov 26 10:53 S 5 10 Clear CLR 73 52     48%   72 30.11 30.11      
Nov 26 09:53 Calm 10 Clear CLR 69 56     63%     30.12 30.12      
Nov 26 08:53 Calm 10 Clear CLR 64 52     65%     30.12 30.12      
Nov 26 07:53 Calm 10 Clear CLR 59 48     67%     30.12 30.11      
Nov 26 06:53 Calm 10 Clear CLR 56 49     77%     30.1 30.1      
Nov 26 05:53 Calm 10 Clear CLR 55 50     83%     30.08 30.08      
Nov 26 04:53 Calm 10 Clear CLR 55 50     83%     30.07 30.06      
Nov 26 03:53 Calm 8 Clear CLR 55 51     86%     30.06 30.06      
Nov 26 02:53 Calm 8 Clear CLR 56 52     87%     30.06 30.06      
Nov 26 01:53 Calm 9 Clear CLR 58 53     84%     30.05 30.05      
Nov 26 00:53 Calm 9 Clear CLR 58 54     87%     30.05 30.05      
Nov 25 23:53 NNE 3 9 Clear CLR 60 55     83%     30.05 30.05      
Nov 25 22:53 NE 3 8 Clear CLR 60 55     83%     30.06 30.06      
Nov 25 21:53 Calm 8 Clear CLR 63 57     81%     30.05 30.05      
Nov 25 20:53 Calm 8 Mostly Clear FEW011 64 55     73%     30.05 30.04      
Nov 25 19:53 NNW 3 8 Clear CLR 65 57     76%     30.04 30.04      
Nov 25 18:53 Calm 10 Clear CLR 66 59     78%     30.03 30.02      
Nov 25 17:53 S 3 10 Clear CLR 65 58     78%     30 30      
Nov 25 16:53 SSW 5 10 Mostly Clear FEW210 FEW250 68 57     68%     29.99 29.98      
Nov 25 15:53 W 5 10 Clear   71 56     59%   71 29.97 29.96      
Nov 25 14:53 SW 8 10 Partly Cloudy FEW055 FEW210 SCT250 72 57     59%   72 29.96 29.96      
Nov 25 13:53 W 6 10 Partly Cloudy FEW055 SCT250 74 55     52%   73 29.95 29.95      
Nov 25 12:53 NW 3 10 Partly Cloudy FEW055 SCT250 73 51     46%   72 29.96 29.96      
Nov 25 11:53 Calm 10 Partly Cloudy FEW055 FEW200 SCT250 71 52     51%   70 29.98 29.97      
Nov 25 09:53 Calm 10 Partly Cloudy SCT250 66 53     63%     30 30      
May 14 17:53 W 8 10 Clear CLR 65 52     63%     29.94 29.94      
May 14 15:53 SW 9 10 Mostly Clear FEW029 67 51     57%     29.96 29.96      
May 14 08:53 3 10 Partly Cloudy SCT017 63 52     67%     29.99 29.99      
May 13 20:53 W 7 10 Clear CLR 61 54     78%     29.98 29.98      
May 13 14:53 SW 10 10 Partly Cloudy SCT044 69 50     51%     29.98 29.98      
May 12 18:53 S 10 10 Mostly Cloudy FEW043 BKN050 62 52     70%     29.96 29.96      
May 12 04:53 SE 3 8 Light Rain SCT013 BKN018 OVC025 57 55     93%     29.91 29.91 0   0
May 11 23:28 5 10 Cloudy BKN010 BKN015 OVC027 59 57     93%     29.9        
May 11 21:53 SE 8 8 Cloudy SCT013 BKN018 OVC036 60 56     86%     29.87 29.87      
May 11 18:53 SE 9 9 Cloudy FEW011 SCT022 OVC026 60 55     83%     29.82 29.82      
May 11 17:53 SSE 13 10 Cloudy SCT020 BKN024 OVC031 61 54     78%     29.83 29.82      
May 11 09:53 SSE 16 9 Cloudy SCT027 OVC030 65 52     63%     29.87 29.87      
Jun 11 23:53 W 7 10 Cloudy OVC037 63 53     70%     29.99 29.98      
Jun 11 19:53 S 8 10 Partly Cloudy FEW023 SCT028 SCT035 64 54     70%     29.93 29.93      
Jun 11 14:53 SSW 18 10 Partly Cloudy FEW033 SCT038 71 53     53%   70 29.92 29.91      
Jun 11 12:53 SSE 10 10 Mostly Cloudy SCT028 BKN036 69 53     57%     29.92 29.92      
Jun 11 07:53 ESE 8 10 Cloudy BKN022 BKN030 OVC035 62 56     80%     29.89 29.89      
Jun 08 14:53 W 9 9 Mostly Clear FEW027 FEW250 72 58     61%   72 29.98 29.97      
Jun 07 22:53 3 7 Cloudy FEW013 OVC015 63 57     81%     29.98 29.98      
Jun 07 19:53 SSW 9 8 Cloudy SCT013 OVC016 63 57     81%     29.96 29.96      
Jun 07 08:59 SW 5 4 Fog/Mist SCT007 BKN010 OVC014 62 60     93%     29.95        
Jun 06 12:53 SW 7 10 Cloudy OVC013 66 59     78%     29.95 29.95      
Jun 06 00:53 S 5 10 Cloudy OVC012 63 58     84%     29.9 29.89